[[{"header":{"parameterUnit":"m.s-1","parameterCategory":1,"la1":30.2991,"la2":30.254,"lo1":-89.0895,"lo2":-89.0444,"dy":0.0017,"dx":0.0017,"nx":28,"ny":28,"refTime":"2025-07-18T09:00:00:Z","depth":0,"parameterNumber":2,"parameterNumberName":"U-component_of_WINDS"},"data":[0,0,0,0,0,0,0,0,0,0,0,0,0,0,0,0,0,0,0,0,0,0,0,0,0,0,0,0,0,0,0,0,0,0,0,0,0,0,0,0,0,0,0,0,0,0,0,0,0,0,0,0,0,0,0,0,0,0,2.168,2.1681,0,2.1753,2.1754,2.1755,2.1733,2.1732,2.173,2.1729,2.1801,2.1804,2.1808,0,0,0,0,0,0,0,0,0,0,0,0,0,2.1517,2.152,2.168,2.1681,2.1682,2.1753,2.1754,2.1755,2.1733,2.1732,2.173,2.1728,2.18,2.1804,2.1808,0,0,0,0,0,0,0,0,0,0,0,0,0,2.1589,2.1521,2.168,2.168,2.168,2.1753,2.1754,2.1755,2.1734,2.1731,2.1729,2.1727,2.1799,2.1804,2.1809,2.1885,0,0,2.1824,2.1826,0,0,0,0,0,0,0,0,2.1585,2.1595,2.1679,2.168,2.1681,2.1732,2.1723,2.1799,2.1734,2.1713,2.1729,2.1726,2.178,2.1786,2.1805,2.1888,2.1892,2.1824,2.1827,2.183,2.1831,0,0,0,0,0,0,0,2.158,2.1592,2.1709,2.168,2.1681,2.1675,2.1682,2.1738,2.1758,2.1715,2.1714,2.1723,2.178,2.18,2.1806,2.1893,2.1824,2.1829,2.1832,2.1834,2.2038,2.204,0,0,0,0,0,0,2.1575,2.1588,2.1707,2.1711,2.1626,2.1679,2.1688,2.1718,2.1758,2.1762,2.1725,2.1721,2.1793,2.1801,2.1809,2.1898,2.183,2.1834,2.1837,2.2036,2.2039,2.2041,0,0,0,0,0,0,2.1571,2.1586,2.1704,2.1649,2.1664,2.1685,2.1718,2.172,2.174,2.1765,2.1768,2.1742,2.1791,2.1802,2.1865,2.19,2.1837,2.1841,2.2033,2.2037,2.204,2.2078,0,0,0,0,0,0,2.1567,2.1585,2.1615,2.165,2.1667,2.1761,2.172,2.1723,2.1749,2.1746,2.1782,2.1786,2.179,2.1858,2.187,2.1906,2.1845,2.203,2.2035,2.2039,2.2074,2.2083,2.209,0,0,0,0,0,2.1561,2.1623,2.1617,2.1631,2.1705,2.1763,2.1772,2.1777,2.1753,2.1782,2.1797,2.1784,2.1895,2.1865,2.1879,2.1916,2.2028,2.2033,2.2038,2.207,2.2081,2.209,0,0,0,0,0,0,2.1592,2.1628,2.1621,2.1697,2.1727,2.1759,2.1797,2.1789,2.1826,2.1821,2.1824,2.1832,2.1897,2.1913,2.1879,2.199,2.1957,2.1966,2.1977,2.1987,2.1995,2.1989,2.1849,0,0,0,0,0,2.1608,2.1652,2.1681,2.1745,2.176,2.1776,2.1801,2.1802,2.1833,2.1845,2.1865,2.1895,2.1936,2.1963,2.2002,2.2077,2.2082,2.2109,2.2117,2.2124,2.213,2.2167,2.2178,2.2059,2.2059,2.2059,0,0,2.164,2.1665,2.1693,2.1752,2.1775,2.1819,2.1787,2.1836,2.1868,2.1853,2.1913,2.1929,2.1962,2.203,2.2061,2.2046,2.2164,2.2131,2.2136,2.2139,2.2173,2.2185,2.2195,2.2063,2.2062,2.2062,0,0,2.1721,2.1747,2.1801,2.1824,2.186,2.187,2.1883,2.1916,2.1925,2.1986,2.1974,2.2012,2.2084,2.2107,2.2128,2.2215,2.2203,2.2228,2.2269,2.2305,2.2315,2.2323,2.2351,2.2361,2.2235,2.2235,2.2235,0,2.1757,2.1824,2.1829,2.1878,2.1903,2.1891,2.1944,2.1967,2.2013,2.203,2.2012,2.2099,2.2121,2.2192,2.2213,2.2232,2.2244,2.2223,2.2313,2.2321,2.2329,2.2355,2.2366,2.2237,2.2237,2.2237,2.2236,0,2.1865,2.1911,2.195,2.1995,2.2024,2.2075,2.2086,2.2115,2.2112,2.2123,2.2183,2.2209,2.2251,2.2269,2.2268,2.234,2.2328,2.2312,2.2279,2.2343,2.2367,2.2378,2.2241,2.224,2.2239,2.2239,0,0,2.1967,2.2013,2.2027,2.2045,2.2083,2.2118,2.2167,2.2209,2.2232,2.2264,2.2303,2.2363,2.2347,2.2371,2.2372,2.2404,2.2466,2.2383,2.2383,2.2395,2.2543,2.2553,2.2565,2.246,2.2462,2.2463,2.2539,0,2.2049,2.2136,2.2141,2.2219,2.226,2.2249,2.2291,2.2318,2.2329,2.2364,2.2376,2.2417,2.2394,2.2408,2.2439,2.2452,2.2496,2.2447,2.2494,2.2495,2.2483,2.2578,2.259,2.266,2.2549,2.2551,2.2552,0,2.2156,2.2191,2.2273,2.2302,2.2319,2.2357,2.2394,2.2429,2.2457,2.2463,2.2489,2.2484,2.2532,2.2499,2.2563,2.253,2.2549,2.2558,2.2561,2.2564,2.2526,2.258,2.2683,2.2692,2.2568,2.2567,2.2566,0,2.2218,2.2286,2.2343,2.2359,2.2395,2.2422,2.2438,2.2464,2.2488,2.252,2.2535,2.2572,2.2592,2.262,2.2625,2.2601,2.2688,2.2656,2.2692,2.2692,2.2709,2.2707,2.2813,2.2726,2.2726,2.2726,2.2726,0,2.2308,2.2358,2.2371,2.2405,2.246,2.2464,2.2518,2.2532,2.2555,2.259,2.2584,2.2617,2.2623,2.2657,2.2661,2.2712,2.2722,2.2726,2.2726,2.2725,2.2724,2.2735,2.273,2.2729,2.2728,2.2728,2.2727,0,2.2386,2.2397,2.2457,2.2486,2.2494,2.2533,2.2556,2.2588,2.2598,2.2643,2.2654,2.2669,2.2708,2.2716,2.2764,2.2766,2.2825,2.2822,2.2816,2.2814,2.2848,2.2843,2.2963,2.2977,2.2884,2.2885,2.2885,0,2.244,2.2478,2.251,2.2534,2.2551,2.2589,2.2613,2.2618,2.2643,2.2677,2.2704,2.2743,2.2774,2.2837,2.2851,2.2886,2.2882,2.2921,2.2887,2.2883,2.2878,2.2875,2.2877,2.2927,2.2928,2.2929,2.2929,0,2.2535,2.2538,2.2573,2.261,2.2638,2.2667,2.2694,2.2714,2.2722,2.275,2.279,2.2814,2.2861,2.2898,2.2933,2.2948,2.2939,2.294,2.2949,2.2948,2.2941,2.2941,2.283,2.2937,2.2936,2.2935,2.2935,2.2935,2.2601,2.2633,2.266,2.2698,2.2719,2.2744,2.2774,2.2788,2.2822,2.286,2.2861,2.2904,2.2929,2.2974,2.2991,2.3023,2.3011,2.3026,2.3029,2.3031,2.3033,2.2938,2.303,2.303,2.303,2.303,2.303,0,2.2693,2.2709,2.2744,2.2782,2.2811,2.2802,2.2831,2.2855,2.2894,2.2918,2.2948,2.2993,2.3028,2.3045,2.3079,2.3102,2.3098,2.311,2.3107,2.311,2.3044,2.3031,2.3112,2.3112,2.3112,2.3112,2.3112,2.3112,2.2744,2.2796,2.2801,2.2863,2.2879,2.2921,2.2938,2.296,2.2979,2.3029,2.3058,2.3069,2.3089,2.3125,2.3156,2.316,2.3172,2.3185,2.3186,2.3124,2.3115,2.3107,2.3095,2.3188,2.3188,2.325,2.325,2.3251]},{"header":{"parameterUnit":"m.s-1","parameterCategory":1,"la1":30.2991,"la2":30.254,"lo1":-89.0895,"lo2":-89.0444,"dy":0.0017,"dx":0.0017,"nx":28,"ny":28,"refTime":"2025-07-18T09:00:00:Z","depth":0,"parameterNumber":3,"parameterNumberName":"V-component_of_WINDS"},"data":[0,0,0,0,0,0,0,0,0,0,0,0,0,0,0,0,0,0,0,0,0,0,0,0,0,0,0,0,0,0,0,0,0,0,0,0,0,0,0,0,0,0,0,0,0,0,0,0,0,0,0,0,0,0,0,0,0,0,2.9933,2.9934,0,3.0021,3.0022,3.0023,3.0,2.9998,2.9997,2.9995,3.0083,3.0087,3.0091,0,0,0,0,0,0,0,0,0,0,0,0,0,2.9742,2.9746,2.9933,2.9934,2.9935,3.0021,3.0022,3.0023,3.0,2.9998,2.9996,2.9994,3.0082,3.0086,3.0091,0,0,0,0,0,0,0,0,0,0,0,0,0,2.9827,2.9747,2.9933,2.9934,2.9935,3.002,3.0022,3.0023,3.0001,2.9998,2.9996,2.9993,3.008,3.0086,3.0092,3.018,0,0,3.011,3.0112,0,0,0,0,0,0,0,0,2.9822,2.9834,2.9933,2.9934,2.9935,2.9997,2.9987,3.0076,3.0001,2.9976,2.9995,2.9992,3.0056,3.0064,3.0086,3.0184,3.0188,3.011,3.0114,3.0116,3.0118,0,0,0,0,0,0,0,2.9817,2.983,2.9968,2.9934,2.9936,2.9929,2.9939,3.0004,3.0029,2.9978,2.9976,2.9987,3.0056,3.008,3.0088,3.0189,3.011,3.0115,3.0119,3.0121,3.0362,3.0365,0,0,0,0,0,0,2.981,2.9826,2.9965,2.997,2.9871,2.9935,2.9945,2.998,3.0029,3.0034,2.9989,2.9986,3.0072,3.0081,3.0091,3.0197,3.0116,3.0122,3.0125,3.036,3.0363,3.0366,0,0,0,0,0,0,2.9806,2.9823,2.9961,2.9898,2.9915,2.9941,2.998,2.9983,3.0007,3.0037,3.0042,3.0009,3.007,3.0083,3.0158,3.0199,3.0125,3.013,3.0356,3.0361,3.0365,3.0409,0,0,0,0,0,0,2.9801,2.9821,2.9856,2.9899,2.9918,3.0028,2.9983,2.9986,3.0017,3.0014,3.0057,3.0062,3.0069,3.0149,3.0164,3.0206,3.0135,3.0353,3.0358,3.0363,3.0404,3.0414,3.0423,0,0,0,0,0,2.9794,2.9865,2.9858,2.9875,2.9962,3.003,3.0041,3.0048,3.0021,3.0055,3.0075,3.0061,3.0193,3.0157,3.0173,3.0218,3.035,3.0357,3.0363,3.04,3.0412,3.0423,0,0,0,0,0,0,2.9827,2.9871,2.9863,2.9951,2.9987,3.0026,3.007,3.0062,3.0106,3.0101,3.0107,3.0117,3.0194,3.0213,3.0173,3.0305,3.0267,3.0277,3.029,3.0302,3.0311,3.0305,3.014,0,0,0,0,0,2.9844,2.9896,2.9932,3.0005,3.0024,3.0044,3.0074,3.0076,3.0114,3.0129,3.0154,3.019,3.0239,3.0272,3.0319,3.0407,3.0415,3.0446,3.0455,3.0463,3.0471,3.0518,3.0531,3.0387,3.0387,3.0387,0,0,2.988,2.9911,2.9944,3.0012,3.0041,3.0094,3.0057,3.0115,3.0154,3.0137,3.021,3.0229,3.027,3.0351,3.0389,3.037,3.0513,3.0471,3.0477,3.0481,3.0526,3.0539,3.0551,3.0392,3.0391,3.039,0,0,2.9973,3.0003,3.0066,3.0095,3.0139,3.0151,3.0167,3.0207,3.022,3.0293,3.0281,3.0327,3.0412,3.0441,3.0467,3.057,3.0558,3.0585,3.0635,3.068,3.0691,3.0701,3.0737,3.075,3.0593,3.0594,3.0594,0,3.0013,3.0093,3.01,3.0159,3.0188,3.0176,3.024,3.0267,3.0324,3.0344,3.0323,3.0429,3.0456,3.0543,3.0568,3.059,3.0607,3.058,3.0689,3.07,3.0709,3.0743,3.0756,3.0596,3.0596,3.0596,3.0596,0,3.0139,3.0194,3.024,3.0295,3.0331,3.0392,3.0406,3.0441,3.044,3.0454,3.0528,3.0559,3.0612,3.0633,3.0632,3.072,3.0707,3.0688,3.0649,3.0726,3.0757,3.077,3.0601,3.06,3.0599,3.0598,0,0,3.0255,3.0313,3.0329,3.0353,3.04,3.0442,3.0502,3.0554,3.0583,3.0622,3.0671,3.0743,3.0725,3.0755,3.0757,3.0797,3.0875,3.0773,3.0774,3.079,3.0972,3.0985,3.1,3.0867,3.087,3.0872,3.0968,0,3.0352,3.0457,3.0464,3.056,3.061,3.0599,3.065,3.0684,3.0699,3.0743,3.0759,3.0809,3.0783,3.08,3.0839,3.0857,3.0911,3.085,3.0912,3.0914,3.0902,3.1017,3.1032,3.1121,3.098,3.0983,3.0984,0,3.0478,3.0521,3.0622,3.066,3.0681,3.0728,3.0775,3.0818,3.0855,3.0863,3.0895,3.0892,3.0952,3.0911,3.0993,3.0951,3.0977,3.099,3.0993,3.0999,3.0953,3.1025,3.115,3.1163,3.1004,3.1002,3.1001,0,3.0552,3.0635,3.0705,3.0726,3.0773,3.0805,3.0826,3.0861,3.0891,3.0932,3.0952,3.0999,3.1025,3.1061,3.107,3.104,3.1151,3.1112,3.1158,3.1158,3.1182,3.118,3.1312,3.12,3.12,3.1199,3.1199,0,3.0658,3.0719,3.0738,3.0782,3.0849,3.0856,3.0923,3.0942,3.0972,3.1018,3.1011,3.1054,3.1063,3.1108,3.1115,3.1181,3.1193,3.12,3.1201,3.12,3.1199,3.1217,3.121,3.1203,3.1202,3.1202,3.1201,0,3.0751,3.0767,3.0842,3.088,3.0891,3.0939,3.0971,3.1011,3.1025,3.1083,3.1097,3.1118,3.117,3.1182,3.1244,3.1249,3.1326,3.1322,3.1314,3.1314,3.1359,3.1354,3.1506,3.1526,3.1401,3.1402,3.1403,0,3.0818,3.0865,3.0907,3.0938,3.096,3.1009,3.104,3.1048,3.108,3.1125,3.116,3.1211,3.1252,3.1335,3.1356,3.1402,3.1398,3.1448,3.1405,3.1403,3.1398,3.1395,3.1399,3.1456,3.1458,3.1459,3.146,0,3.0934,3.0939,3.0984,3.1031,3.1068,3.1106,3.1142,3.1167,3.118,3.1217,3.127,3.1302,3.1364,3.1414,3.1461,3.1481,3.1473,3.1473,3.1486,3.1485,3.1479,3.1482,3.1335,3.1469,3.1469,3.1468,3.1467,3.1467,3.1015,3.1056,3.1092,3.1142,3.117,3.1203,3.1243,3.1262,3.1306,3.1358,3.136,3.1417,3.1452,3.1514,3.1537,3.1581,3.1566,3.1585,3.1589,3.1594,3.1597,3.1472,3.159,3.1589,3.1589,3.1589,3.1589,0,3.113,3.1152,3.1198,3.1249,3.1288,3.1276,3.1315,3.1348,3.1399,3.1432,3.1473,3.1533,3.1581,3.1605,3.1653,3.1684,3.1681,3.1696,3.1693,3.1698,3.1609,3.1592,3.1697,3.1697,3.1697,3.1697,3.1697,3.1697,3.1194,3.1262,3.1271,3.1352,3.1373,3.143,3.1453,3.1483,3.151,3.1577,3.1618,3.1633,3.1662,3.1712,3.1755,3.1761,3.1778,3.1795,3.1799,3.1715,3.1704,3.1694,3.1678,3.1799,3.1799,3.1884,3.1885,3.1885]}]]